• In Hungary
  • List of Countries
  • For 7 days
  • Water Temperature
  • Satellite Maps
  • Weather Map
  • News
  • Weather Widgets
  • user-avatar
    Login

    Hourly Weather Battikaloa

    Today, 14 December, Thursday

    Time Temperature Precipitation Wind Pressure Humidity
    00:00 +27°C° 0.9 mm 1 mps 759 mmHg 86%
    01:00 +27°C° 0.9 mm 1 mps 759 mmHg 87%
    02:00 +26°C° 0.9 mm 1 mps 758 mmHg 87%
    03:00 +26°C° 0.5 mm 1 mps 758 mmHg 88%
    04:00 +26°C° 0.5 mm 1 mps 759 mmHg 89%
    05:00 +26°C° 0 mm 1 mps 759 mmHg 90%
    06:00 +27°C° 0.2 mm 1 mps 759 mmHg 87%
    07:00 +28°C° 0.2 mm 1 mps 760 mmHg 83%
    08:00 +29°C° 0.2 mm 1 mps 760 mmHg 79%
    09:00 +30°C° 0.1 mm 1 mps 760 mmHg 75%
    10:00 +31°C° 0.1 mm 2 mps 760 mmHg 70%
    11:00 +32°C° 0.1 mm 2 mps 759 mmHg 66%
    12:00 +32°C° 0.2 mm 2 mps 759 mmHg 67%
    13:00 +31°C° 0.2 mm 3 mps 758 mmHg 68%
    14:00 +31°C° 0.2 mm 3 mps 758 mmHg 69%
    15:00 +31°C° 0 mm 3 mps 758 mmHg 73%
    16:00 +30°C° 0 mm 3 mps 758 mmHg 76%
    17:00 +29°C° 0 mm 3 mps 758 mmHg 80%
    18:00 +29°C° 0 mm 2 mps 759 mmHg 82%
    19:00 +28°C° 0 mm 2 mps 759 mmHg 83%
    20:00 +28°C° 0 mm 2 mps 759 mmHg 84%
    21:00 +27°C° 0 mm 2 mps 759 mmHg 85%
    22:00 +27°C° 0 mm 2 mps 759 mmHg 87%
    23:00 +27°C° 0 mm 2 mps 759 mmHg 88%

    Tomorrow, 15 December, Friday

    Time Temperature Precipitation Wind Pressure Humidity
    00:00 +27°C° 0.1 mm 2 mps 759 mmHg 88%
    01:00 +27°C° 0.1 mm 2 mps 758 mmHg 89%
    02:00 +26°C° 0.1 mm 2 mps 758 mmHg 90%
    03:00 +26°C° 0.1 mm 2 mps 758 mmHg 90%
    04:00 +26°C° 0.1 mm 2 mps 758 mmHg 90%
    05:00 +26°C° 0.1 mm 2 mps 758 mmHg 90%
    06:00 +27°C° 0.1 mm 3 mps 758 mmHg 87%
    07:00 +28°C° 0.1 mm 3 mps 759 mmHg 84%
    08:00 +29°C° 0.1 mm 3 mps 759 mmHg 81%
    09:00 +30°C° 0.9 mm 3 mps 759 mmHg 79%
    10:00 +30°C° 0.9 mm 3 mps 759 mmHg 76%
    11:00 +32°C° 0.9 mm 4 mps 759 mmHg 74%
    12:00 +32°C° 1.6 mm 4 mps 759 mmHg 75%
    13:00 +32°C° 1.6 mm 4 mps 758 mmHg 76%
    14:00 +30°C° 1.6 mm 4 mps 758 mmHg 78%
    15:00 +30°C° 1.3 mm 4 mps 758 mmHg 81%
    16:00 +29°C° 1.3 mm 4 mps 758 mmHg 84%
    17:00 +28°C° 1.3 mm 4 mps 758 mmHg 87%
    18:00 +28°C° 0.5 mm 4 mps 758 mmHg 88%
    19:00 +27°C° 0.5 mm 4 mps 759 mmHg 89%
    20:00 +27°C° 0.5 mm 3 mps 760 mmHg 90%
    21:00 +27°C° 0.5 mm 4 mps 760 mmHg 90%
    22:00 +27°C° 0.5 mm 4 mps 760 mmHg 90%
    23:00 +27°C° 0.5 mm 4 mps 760 mmHg 90%

    Day after tomorrow, 16 December, Saturday

    Time Temperature Precipitation Wind Pressure Humidity
    00:00 +27°C° 0.7 mm 4 mps 759 mmHg 89%
    01:00 +27°C° 0.7 mm 4 mps 759 mmHg 89%
    02:00 +27°C° 0.7 mm 4 mps 758 mmHg 89%
    03:00 +27°C° 0.6 mm 4 mps 759 mmHg 89%
    04:00 +27°C° 0.6 mm 4 mps 759 mmHg 89%
    05:00 +27°C° 0.6 mm 4 mps 759 mmHg 89%
    06:00 +28°C° 0.2 mm 4 mps 759 mmHg 86%
    07:00 +29°C° 0.2 mm 4 mps 760 mmHg 83%
    08:00 +29°C° 0.2 mm 4 mps 760 mmHg 80%
    09:00 +30°C° 0.2 mm 5 mps 760 mmHg 78%
    10:00 +30°C° 0.2 mm 5 mps 760 mmHg 77%
    11:00 +32°C° 0.2 mm 5 mps 759 mmHg 75%
    12:00 +32°C° 0.5 mm 5 mps 759 mmHg 76%
    13:00 +32°C° 0.5 mm 5 mps 758 mmHg 76%
    14:00 +32°C° 0.5 mm 5 mps 757 mmHg 76%
    15:00 +30°C° 0.4 mm 5 mps 757 mmHg 79%
    16:00 +29°C° 0.4 mm 5 mps 757 mmHg 82%
    17:00 +29°C° 0.4 mm 5 mps 758 mmHg 85%
    18:00 +28°C° 0.2 mm 5 mps 758 mmHg 86%
    19:00 +28°C° 0.2 mm 5 mps 759 mmHg 87%
    20:00 +28°C° 0.2 mm 5 mps 760 mmHg 88%
    21:00 +28°C° 0.3 mm 5 mps 760 mmHg 88%
    22:00 +27°C° 0.3 mm 5 mps 760 mmHg 88%
    23:00 +27°C° 0.3 mm 5 mps 760 mmHg 89%

    17 December, Sunday

    Time Temperature Precipitation Wind Pressure Humidity
    00:00 +27°C° 0.6 mm 5 mps 760 mmHg 88%
    01:00 +27°C° 0.6 mm 5 mps 759 mmHg 88%
    02:00 +27°C° 0.6 mm 6 mps 759 mmHg 88%
    03:00 +27°C° 0.4 mm 6 mps 759 mmHg 88%
    04:00 +27°C° 0.4 mm 6 mps 759 mmHg 87%
    05:00 +27°C° 0.4 mm 6 mps 759 mmHg 87%
    06:00 +28°C° 0.1 mm 6 mps 760 mmHg 84%
    07:00 +28°C° 0.1 mm 6 mps 760 mmHg 81%
    08:00 +29°C° 0.1 mm 6 mps 761 mmHg 78%
    09:00 +30°C° 0.1 mm 6 mps 761 mmHg 76%
    10:00 +30°C° 0.1 mm 6 mps 761 mmHg 74%
    11:00 +32°C° 0.1 mm 6 mps 760 mmHg 71%
    12:00 +30°C° 0.1 mm 6 mps 760 mmHg 71%
    13:00 +30°C° 0.1 mm 6 mps 759 mmHg 71%
    14:00 +30°C° 0.1 mm 6 mps 758 mmHg 71%
    15:00 +30°C° 0 mm 6 mps 758 mmHg 74%
    16:00 +29°C° 0 mm 6 mps 758 mmHg 77%
    17:00 +28°C° 0 mm 5 mps 759 mmHg 80%
    18:00 +28°C° 0.1 mm 5 mps 759 mmHg 81%
    19:00 +27°C° 0.1 mm 5 mps 760 mmHg 82%
    20:00 +27°C° 0.1 mm 5 mps 760 mmHg 83%
    21:00 +27°C° 0.1 mm 5 mps 760 mmHg 84%
    22:00 +27°C° 0.1 mm 5 mps 760 mmHg 84%
    23:00 +27°C° 0.1 mm 5 mps 760 mmHg 85%

    18 December, Monday

    Time Temperature Precipitation Wind Pressure Humidity
    00:00 +27°C° 0.1 mm 5 mps 760 mmHg 85%
    01:00 +27°C° 0.1 mm 5 mps 759 mmHg 86%
    02:00 +26°C° 0.1 mm 5 mps 759 mmHg 86%
    03:00 +26°C° 0.1 mm 5 mps 759 mmHg 86%
    04:00 +26°C° 0.1 mm 5 mps 759 mmHg 86%
    05:00 +27°C° 0.1 mm 5 mps 759 mmHg 86%
    06:00 +27°C° 0.1 mm 5 mps 760 mmHg 83%
    07:00 +28°C° 0.1 mm 5 mps 760 mmHg 80%
    08:00 +29°C° 0.1 mm 5 mps 761 mmHg 77%
    09:00 +30°C° 0.1 mm 5 mps 761 mmHg 74%
    10:00 +30°C° 0.1 mm 5 mps 760 mmHg 71%
    11:00 +32°C° 0.1 mm 5 mps 760 mmHg 69%
    12:00 +32°C° 0.1 mm 5 mps 759 mmHg 70%
    13:00 +32°C° 0.1 mm 6 mps 759 mmHg 71%
    14:00 +32°C° 0.1 mm 6 mps 758 mmHg 72%
    15:00 +30°C° 0.1 mm 5 mps 758 mmHg 76%
    16:00 +29°C° 0.1 mm 5 mps 758 mmHg 80%
    17:00 +28°C° 0.1 mm 5 mps 758 mmHg 84%
    18:00 +28°C° 0.2 mm 4 mps 759 mmHg 86%
    19:00 +28°C° 0.2 mm 4 mps 759 mmHg 88%
    20:00 +27°C° 0.2 mm 4 mps 760 mmHg 90%
    21:00 +27°C° 0.5 mm 4 mps 760 mmHg 90%
    22:00 +27°C° 0.5 mm 3 mps 760 mmHg 90%
    23:00 +27°C° 0.5 mm 3 mps 759 mmHg 90%

    19 December, Tuesday

    Time Temperature Precipitation Wind Pressure Humidity
    00:00 +27°C° 0.6 mm 3 mps 759 mmHg 90%
    01:00 +27°C° 0.6 mm 3 mps 758 mmHg 90%
    02:00 +27°C° 0.6 mm 3 mps 758 mmHg 90%
    03:00 +27°C° 0.8 mm 3 mps 758 mmHg 90%
    04:00 +27°C° 0.8 mm 3 mps 758 mmHg 90%
    05:00 +27°C° 0.8 mm 3 mps 759 mmHg 90%
    06:00 +27°C° 1.3 mm 3 mps 759 mmHg 87%
    07:00 +28°C° 1.3 mm 3 mps 760 mmHg 84%
    08:00 +29°C° 1.3 mm 3 mps 760 mmHg 81%
    09:00 +30°C° 2.3 mm 4 mps 760 mmHg 79%
    10:00 +30°C° 2.3 mm 4 mps 760 mmHg 77%
    11:00 +32°C° 2.3 mm 5 mps 759 mmHg 75%
    12:00 +30°C° 2.9 mm 5 mps 759 mmHg 76%
    13:00 +30°C° 2.9 mm 5 mps 758 mmHg 77%
    14:00 +30°C° 2.9 mm 5 mps 757 mmHg 78%
    15:00 +29°C° 2.7 mm 5 mps 758 mmHg 81%
    16:00 +29°C° 2.7 mm 5 mps 758 mmHg 84%
    17:00 +28°C° 2.7 mm 5 mps 758 mmHg 86%
    18:00 +28°C° 1.6 mm 5 mps 759 mmHg 87%
    19:00 +28°C° 1.6 mm 5 mps 759 mmHg 88%
    20:00 +28°C° 1.6 mm 5 mps 760 mmHg 88%
    21:00 +27°C° 1 mm 5 mps 760 mmHg 89%
    22:00 +27°C° 1 mm 4 mps 759 mmHg 89%
    23:00 +27°C° 1 mm 4 mps 759 mmHg 90%
    Show more